Regional Weather Roundup
Issued by NWS Wilmington, NC

Home | Current Version | Previous Version | Text Only | Print | Product List | Glossary On
Versions: 1 2 3 4 5 6 7 8 9 10 11 12 13 14 15 16 17 18 19 20 21 22 23 24 25 26 27 28 29 30 31 32 33 34 35 36 37 38 39 40 41 42 43 44 45 46 47 48 49
000
ASUS42 KILM 141110
RWRILM
RWRILM
REGIONAL HOURLY WEATHER ROUNDUP
NATIONAL WEATHER SERVICE WILMINGTON NC
700 AM EDT MON JUL 14 2014

NOTE: "FAIR" INDICATES FEW OR NO CLOUDS BELOW 12,000 FEET WITH NO
SIGNIFICANT WEATHER AND/OR OBSTRUCTIONS TO VISIBILITY.

...............WFO WILMINGTON COUNTY WARNING AREA...............

......COASTAL NC AND SC COUNTIES......

CITY           SKY/WX    TMP DP  RH WIND       PRES   REMARKS
WILMINGTON     CLEAR     76  73  91 SW6       30.04S
SOUTHPORT      CLEAR     78  73  87 W5        30.05R
N MYRTLE BEACH CLEAR     75  73  93 CALM      30.04S
MYRTLE BEACH   PTCLDY    75  72  88 W6        30.04S

......INLAND NC AND SC COUNTIES.......

CITY           SKY/WX    TMP DP  RH WIND       PRES   REMARKS
LUMBERTON      PTCLDY    73  72  96 SW5       30.03R
ELIZABETHTOWN  CLEAR     73  73  99 SW3       30.03F
WHITEVILLE     CLEAR     73  72  94 S3        30.04R
FLORENCE       CLOUDY    75  72  90 SW10      30.04R
DARLINGTON     CLOUDY    75  70  83 SW9       30.05R

....................REST OF NORTH CAROLINA......................

.........EASTERN NC.........

CITY           SKY/WX    TMP DP  RH WIND       PRES   REMARKS
CAPE HATTERAS  SUNNY     80  75  84 W6        30.04S
JACKSONVILLE   CLEAR     73  70  88 SW5       30.04S
MOREHEAD CITY  PTCLDY    80  74  81 NW8       30.04S
KENANSVILLE    CLEAR     72  70  95 CALM      30.04S
NEW BERN       CLEAR     76  72  87 SW6       30.05R
ELIZABETH CITY SUNNY     75  72  90 SW8       30.01S

.........CENTRAL NC.........

CITY           SKY/WX    TMP DP  RH WIND       PRES   REMARKS
RALEIGH DURHAM MOCLDY    76  70  82 S8        30.02R
ROCKY MOUNT    CLOUDY    75  72  90 S8        30.02R
ROANOKE RAPIDS NOT AVBL
FAYETTEVILLE   MOCLDY    74  72  93 SW6       30.03R
HOFFMAN        CLEAR     73  71  95 S5        30.05R

.........WESTERN NC.........

CITY           SKY/WX    TMP DP  RH WIND       PRES   REMARKS
CHARLOTTE      PTCLDY    74  69  85 S6        30.04R
GREENSBORO     CLOUDY    75  70  84 SW8       30.02R
HICKORY        NOT AVBL
BOONE          NOT AVBL
ASHEVILLE      NOT AVBL

.....................REST OF SOUTH CAROLINA.....................

.........EASTERN SC.........

CITY           SKY/WX    TMP DP  RH WIND       PRES   REMARKS
CHARLESTON     PTCLDY    78  75  90 W6        30.05S
BEAUFORT MCAS  PTCLDY    77  74  90 W9        30.06R
HILTON HEAD    NOT AVBL

.........CENTRAL SC.........

CITY           SKY/WX    TMP DP  RH WIND       PRES   REMARKS
COLUMBIA       PTCLDY    76  72  87 SW5       30.04S
ORANGEBURG     CLOUDY    75  72  90 W6        30.06R
SUMTER SHAW    CLOUDY    75  74  95 SW7       30.03R

.........WESTERN SC.........

CITY           SKY/WX    TMP DP  RH WIND       PRES   REMARKS
GREENVILLE     NOT AVBL
ROCK HILL      PTCLDY    73  70  90 SW8       30.05R
ANDERSON       CLEAR     71  68  90 S3        30.05R
CLEMSON        NOT AVBL
GREENWOOD      CLEAR     75  69  81 S8        30.07R


...................COASTAL AND OFFSHORE REPORTS..................

................LOCAL PIERS AND NC RESERVE................


STATION/POSITION TIME  SKY/WX   TEMP    WIND        PRES    VSBY
                                AIR SEA DIR/SP/G
                 (UTC)          (F)     (DEG/KT/KT) (MB)    (MI)
JOHNY MRCER PIER 1100            76 83  240/  9/ 11 1016.7S
NC RESRV MASNBRO 1000            75     270/  2     1017.0S
OCEAN CREST PIER 1100            80 85  260/ 16/ 18 1016.1F
SPRINGMAID  PIER 1100            76 83  240/  5/  7 1017.2S


................COASTAL AND OFFSHORE BUOYS................


STATION/POSITION TIME  SKY/WX   TEMP    WIND        PRES    VSBY
                                AIR SEA DIR/SP/G
                 (UTC)          (F)     (DEG/KT/KT) (MB)    (MI)
DIMNDSHOAL 41025 1100                   VRB 14/ 16  1017.1R
WVE H/P(F/S)=  3/ 5 WND WVE H/P(F/S)=  3/ 5 SWL H/P/D(F/S/D)=  2/130/ 7

CAPE LOOKOUT     1000            80     230/  7/ 10 1017.1S
ONSLOW BAY 41036 1100            78 82  230/ 16/ 19 1017.6R
WVE H/P(F/S)=  4/ 5 WND WVE H/P(F/S)=  3/ 5 SWL H/P/D(F/S/D)=  2/130/ 9

5 WRITEBCH 41038 1000            75 82  280/ 10/ 12 1017.8R
MASONBORO  41110 1100               82                N/A
WVE H/P(F/S)=  3/ 7 WND WVE H/P(F/S)=  3/ 7

WILM HARBR 41108 NOT AVBL
27WRITEBCH 41037 1000            77 81  250/ 16/ 17 1017.1R
FRYING PAN 41013 NOT AVBL
SUNST NRSH 41024 1000            80     270/ 12/ 16 1017.0F
CAPRS NRSH 41029 1000            77     230/ 21/ 23   N/A
EDISTO     41004 1100            81 82  230/ 16/ 17 1016.7F
WVE H/P(F/S)=  4/ 8 WND WVE H/P(F/S)=  3/ 5 SWL H/P/D(F/S/D)=  2/ 8



..........OFFSHORE BUOYS BEYOND 100 NM OFFSHORE...........
.....IN A TRIANGLE---HAT TO BERMUDA TO BAHAMAS TO HAT.....


STATION/POSITION TIME  SKY/WX   TEMP    WIND        PRES    VSBY
                                AIR SEA DIR/SP/G
                 (UTC)          (F)     (DEG/KT/KT) (MB)    (MI)
150E HAT   41001 NOT AVBL
W BERMUDA  41048 1000            79 82  190/ 12/ 14 1020.9R
WVE H/P(F/S)=  3/ 8 WND WVE H/P(F/S)=  2/ 3 SWL H/P/D(F/S/D)=  3/130/ 8

ATLANTIC S 41049 1025            81 83  130/ 17/ 19 1019.9R
WVE H/P(F/S)=  5/ 8 WND WVE H/P(F/S)=  5/ 6 SWL H/P/D(F/S/D)=  2/120/ 8

E BAHAMAS  41046 0953            82 84  110/  6/  8 1018.4R
WVE H/P(F/S)=  3/ 7 WND WVE H/P(F/S)=  2/ 4 SWL H/P/D(F/S/D)=  3/100/ 7

NE BAHAMAS 41047 0957            83 85  110/  4/  8 1020.0R
WVE H/P(F/S)=  3/ 9 WND WVE H/P(F/S)=  2/ 4 SWL H/P/D(F/S/D)=  3/140/ 9

120E CANVRL41010 1100            82 83  180/ 10/ 10 1019.2S
WVE H/P(F/S)=  3/ 9 WND WVE H/P(F/S)=  2/ 4 SWL H/P/D(F/S/D)=  3/140/ 9


END


USA.gov is the U.S. government's official web portal to all federal, state and local government web resources and services.